This is the latest recevied weather packets stored in our database for station/object KB3GVC-13. If no packets are shown the sender has not sent any weather packets the latest 10 day(s).
| Time | Temp. | Humidity | Pressure | Rain* | Wind** | Luminosity | Snow |
|---|---|---|---|---|---|---|---|
| 1777872122 | 6.11° C | 80% | 1016.5 hPa | 0 mm | - | - | - |
| 1777871819 | 5.56° C | 80% | 1016.5 hPa | 0 mm | - | - | - |
| 1777871515 | 5.56° C | 80% | 1016.5 hPa | 0 mm | - | - | - |
| 1777871212 | 6.11° C | 79% | 1016.7 hPa | 0 mm | - | - | - |
| 1777870909 | 6.11° C | 79% | 1016.6 hPa | 0 mm | - | - | - |
| 1777870607 | 6.11° C | 78% | 1016.5 hPa | 0 mm | - | - | - |
| 1777870306 | 6.67° C | 78% | 1016.6 hPa | 0 mm | - | - | - |
| 1777870004 | 6.11° C | 78% | 1016.6 hPa | 0 mm | - | - | - |
| 1777869700 | 5.56° C | 80% | 1016.5 hPa | 0 mm | - | - | - |
| 1777869398 | 5° C | 83% | 1016.4 hPa | 0 mm | - | - | - |
| 1777869095 | 5.56° C | 83% | 1016.5 hPa | 0 mm | - | - | - |
| 1777868792 | 5.56° C | 84% | 1016.6 hPa | 0 mm | - | - | - |
| 1777868489 | 5.56° C | 84% | 1016.2 hPa | 0 mm | - | - | - |
| 1777868184 | 5.56° C | 84% | 1016.1 hPa | 0 mm | - | - | - |
| 1777867881 | 5.56° C | 84% | 1016.2 hPa | 0 mm | - | - | - |
| 1777867578 | 5.56° C | 83% | 1015.9 hPa | 0 mm | - | - | - |
| 1777867275 | 5.56° C | 82% | 1016.2 hPa | 0 mm | - | - | - |
| 1777866972 | 6.11° C | 80% | 1016.1 hPa | 0 mm | - | - | - |
| 1777866668 | 6.11° C | 80% | 1015.9 hPa | 0 mm | - | - | - |
| 1777866366 | 6.11° C | 80% | 1016.1 hPa | 0 mm | - | - | - |
| 1777866062 | 5.56° C | 81% | 1015.8 hPa | 0 mm | - | - | - |
| 1777865761 | 6.11° C | 81% | 1015.9 hPa | 0 mm | - | - | - |
| 1777865458 | 5.56° C | 82% | 1016.1 hPa | 0 mm | - | - | - |
| 1777865155 | 6.11° C | 80% | 1015.8 hPa | 0 mm | - | - | - |
| 1777864851 | 6.67° C | 78% | 1015.9 hPa | 0 mm | - | - | - |
* Rain latest hour (hover to see other rain measurements)
** Current wind speed in m/s (hover to see current wind gust speed)